CW0925 Weather Reports


Display with metric or nautical units.
time (UTC)temp
F
wind
direction
speed
MPH
gust
MPH
rain 1hr
in
rain 24hr
in
rain mn
in
humidity
%
barometer
mb
20260510075338 82 261 5.0 12.0 0.00 0.00 0.00 89 1015.7
20260510074332 82 234 6.0 12.0 0.00 0.00 0.00 89 1015.8
20260510073347 82 265 8.0 15.0 0.00 0.00 0.00 88 1015.7
20260510072323 82 255 6.0 12.0 0.00 0.00 0.00 89 1015.9
20260510071322 82 256 6.0 12.0 0.00 0.00 0.00 88 1016.0
20260510070349 82 302 8.0 15.0 0.00 0.00 0.00 88 1016.0
20260510065330 82 275 8.0 13.0 0.00 0.00 0.00 87 1016.1
20260510064329 82 259 8.0 14.0 0.00 0.00 0.00 88 1016.1
20260510063345 82 256 7.0 15.0 0.00 0.00 0.00 88 1016.2
20260510062340 82 265 9.0 16.0 0.00 0.00 0.00 87 1016.2
20260510061354 82 270 7.0 14.0 0.00 0.00 0.00 86 1016.3
20260510060343 83 260 9.0 15.0 0.00 0.00 0.00 86 1016.3
20260510055325 83 275 7.0 13.0 0.00 0.00 0.00 85 1016.4
20260510054320 83 253 6.0 12.0 0.00 0.00 0.00 86 1016.4
20260510053335 83 307 6.0 12.0 0.00 0.00 0.00 85 1016.6
20260510052336 83 263 7.0 11.0 0.00 0.00 0.00 85 1016.6
20260510051332 83 273 6.0 11.0 0.00 0.00 0.00 85 1016.7
20260510050339 83 261 5.0 11.0 0.00 0.00 0.00 85 1016.7
20260510045326 83 257 6.0 11.0 0.00 0.00 0.00 85 1016.8
20260510044321 83 209 4.0 11.0 0.00 0.00 0.00 85 1016.7
20260510043317 83 238 7.0 11.0 0.00 0.00 0.00 85 1016.8
20260510042318 83 232 5.0 10.0 0.00 0.00 0.00 84 1016.8
20260510041353 83 256 5.0 11.0 0.00 0.00 0.00 85 1017.0
20260510040338 83 274 6.0 11.0 0.00 0.00 0.00 86 1017.0
20260510035321 83 241 5.0 10.0 0.00 0.00 0.00 86 1016.9
20260510034318 83 247 7.0 11.0 0.00 0.00 0.00 86 1016.9
20260510033334 83 253 5.0 10.0 0.00 0.00 0.00 87 1016.8
20260510032331 83 236 5.0 13.0 0.00 0.00 0.00 87 1016.6
20260510031325 83 224 5.0 10.0 0.00 0.00 0.00 87 1016.6
20260510030336 83 258 5.0 9.0 0.00 0.00 0.00 87 1016.5
20260510025318 83 253 5.0 10.0 0.00 0.00 0.00 88 1016.5
20260510024334 83 255 5.0 10.0 0.00 0.00 0.00 88 1016.4
20260510023333 83 256 5.0 10.0 0.00 0.00 0.00 87 1016.3
20260510022331 83 222 5.0 10.0 0.00 0.00 0.00 86 1016.2
20260510021326 83 252 4.0 9.0 0.00 0.00 0.00 86 1016.2
20260510020333 83 241 6.0 12.0 0.00 0.00 0.00 85 1016.0
20260510015319 83 252 5.0 11.0 0.00 0.00 0.00 85 1015.8
20260510014335 83 243 8.0 11.0 0.00 0.00 0.00 84 1015.6
20260510013330 83 253 5.0 12.0 0.00 0.00 0.00 84 1015.5
20260510012331 83 238 7.0 12.0 0.00 0.00 0.00 84 1015.3
20260510011326 84 261 8.0 14.0 0.00 0.00 0.00 83 1015.1
20260510010333 84 265 8.0 14.0 0.00 0.00 0.00 83 1015.0
20260510005320 84 235 8.0 14.0 0.00 0.00 0.00 82 1014.9
20260510004335 84 264 8.0 12.0 0.00 0.00 0.00 82 1014.8
20260510003331 83 250 8.0 13.0 0.00 0.00 0.00 82 1014.5
20260510002328 83 261 10.0 17.0 0.00 0.00 0.00 81 1014.3
20260510001346 84 254 9.0 16.0 0.00 0.00 0.00 84 1014.2
20260510000333 84 251 10.0 13.0 0.00 0.00 0.00 84 1014.0
20260509235335 84 248 11.0 17.0 0.00 0.00 0.00 83 1013.9
20260509234350 84 261 8.0 16.0 0.00 0.00 0.00 83 1013.9
20260509233349 84 253 10.0 17.0 0.00 0.00 0.00 82 1013.8
20260509232324 84 270 8.0 16.0 0.00 0.00 0.00 83 1013.8
20260509231319 84 261 11.0 16.0 0.00 0.00 0.00 83 1013.7
20260509230345 84 232 11.0 15.0 0.00 0.00 0.00 83 1013.8
20260509225351 84 267 11.0 18.0 0.00 0.00 0.00 82 1013.6
20260509224325 84 254 8.0 15.0 0.00 0.00 0.00 82 1013.8
20260509223321 85 253 9.0 16.0 0.00 0.00 0.00 80 1013.8
20260509222341 85 247 6.0 10.0 0.00 0.00 0.00 78 1014.1
20260509221335 86 225 6.0 12.0 0.00 0.00 0.00 80 1014.1
20260509220402 86 251 5.0 11.0 0.00 0.00 0.00 76 1014.2
20260509215324 86 255 4.0 10.0 0.00 0.00 0.00 78 1014.1
20260509214323 86 265 7.0 11.0 0.00 0.00 0.00 77 1014.1
20260509213319 86 257 7.0 11.0 0.00 0.00 0.00 80 1014.2
20260509212335 87 296 6.0 10.0 0.00 0.00 0.00 78 1014.2
20260509211350 87 303 6.0 12.0 0.00 0.00 0.00 78 1014.3
20260509210340 87 278 6.0 11.0 0.00 0.00 0.00 77 1014.3
20260509205322 87 257 2.0 9.0 0.00 0.00 0.00 79 1014.4
20260509204318 86 340 5.0 11.0 0.00 0.00 0.00 80 1014.6
20260509203318 87 247 5.0 11.0 0.00 0.00 0.00 80 1014.6
20260509202333 87 297 5.0 12.0 0.00 0.00 0.00 78 1014.8
20260509201329 87 309 5.0 12.0 0.00 0.00 0.00 79 1014.9
20260509200336 87 310 3.0 11.0 0.00 0.00 0.00 81 1014.9
20260509195322 86 295 6.0 12.0 0.00 0.00 0.00 81 1015.0
20260509194336 87 272 5.0 12.0 0.00 0.00 0.00 80 1015.1
20260509193331 87 255 6.0 11.0 0.00 0.00 0.00 79 1015.2
20260509192332 87 352 4.0 12.0 0.00 0.00 0.00 79 1015.4
20260509191326 86 263 6.0 12.0 0.00 0.00 0.00 81 1015.5
20260509190332 87 296 6.0 13.0 0.00 0.00 0.00 80 1015.5
20260509185335 88 260 5.0 11.0 0.00 0.00 0.00 80 1015.5
20260509184333 87 300 6.0 14.0 0.00 0.00 0.00 80 1015.6
20260509183328 86 272 9.0 14.0 0.00 0.00 0.00 79 1015.6
20260509182343 87 281 7.0 12.0 0.00 0.00 0.00 79 1015.7
20260509181338 87 249 8.0 14.0 0.00 0.00 0.00 77 1015.9
20260509180347 87 234 5.0 11.0 0.00 0.00 0.00 79 1016.1
20260509175328 88 301 5.0 10.0 0.00 0.00 0.00 78 1016.2
20260509174344 87 274 6.0 12.0 0.00 0.00 0.00 77 1016.3
20260509173319 87 261 4.0 10.0 0.00 0.00 0.00 79 1016.4
20260509172320 86 260 7.0 11.0 0.00 0.00 0.00 79 1016.6
20260509171333 86 263 7.0 10.0 0.00 0.00 0.00 79 1016.5
20260509170339 87 260 5.0 13.0 0.00 0.00 0.00 79 1016.7
20260509165326 87 280 5.0 12.0 0.00 0.00 0.00 78 1016.6
20260509164321 86 274 6.0 10.0 0.00 0.00 0.00 80 1016.6
20260509163317 86 237 8.0 12.0 0.00 0.00 0.00 80 1016.6
20260509162334 86 261 6.0 11.0 0.00 0.00 0.00 80 1016.6
20260509161333 86 281 7.0 13.0 0.00 0.00 0.00 80 1016.5
20260509160340 86 258 6.0 15.0 0.00 0.00 0.00 79 1016.4
20260509155342 86 271 7.0 12.0 0.00 0.00 0.00 79 1016.4
20260509154356 86 257 6.0 11.0 0.00 0.00 0.00 81 1016.4
20260509153335 86 250 3.0 10.0 0.00 0.00 0.00 83 1016.5
20260509152331 85 266 4.0 11.0 0.00 0.00 0.00 83 1016.5
20260509151326 85 27 7.0 11.0 0.00 0.00 0.00 82 1016.5
20260509150356 85 280 9.0 15.0 0.00 0.00 0.00 82 1016.4
20260509145317 86 282 8.0 14.0 0.00 0.00 0.00 81 1016.4
20260509144352 85 245 4.0 12.0 0.00 0.00 0.00 83 1016.2
20260509143346 86 257 6.0 11.0 0.00 0.00 0.00 81 1016.2
20260509142320 85 257 4.0 14.0 0.00 0.00 0.00 82 1016.1
20260509141320 85 277 7.0 11.0 0.00 0.00 0.00 80 1016.0
20260509140347 85 261 7.0 12.0 0.00 0.00 0.00 81 1016.0
20260509135350 85 271 5.0 12.0 0.00 0.00 0.00 80 1016.0
20260509134327 85 271 5.0 12.0 0.00 0.00 0.00 80 1015.9
20260509133322 85 273 7.0 14.0 0.00 0.00 0.00 79 1015.8
20260509132339 85 264 6.0 12.0 0.00 0.00 0.00 80 1015.9
20260509131333 85 287 7.0 12.0 0.00 0.00 0.00 79 1015.8
20260509130344 84 307 4.0 11.0 0.00 0.00 0.00 81 1015.8
20260509125346 85 324 5.0 9.0 0.00 0.00 0.00 80 1015.8
20260509124341 84 310 3.0 9.0 0.00 0.00 0.00 81 1015.8
20260509123335 84 312 5.0 11.0 0.00 0.00 0.00 82 1015.8
20260509122356 83 251 4.0 12.0 0.00 0.00 0.00 83 1015.8
20260509121330 83 302 4.0 9.0 0.00 0.00 0.00 82 1015.7
20260509120336 83 264 6.0 13.0 0.00 0.00 0.00 83 1015.6
20260509115319 83 270 5.0 10.0 0.00 0.00 0.00 83 1015.5
20260509114318 83 276 6.0 11.0 0.00 0.00 0.00 82 1015.5
20260509113333 82 296 4.0 12.0 0.00 0.00 0.00 82 1015.5
20260509112329 82 268 3.0 10.0 0.00 0.00 0.00 83 1015.4
20260509111327 82 274 5.0 12.0 0.00 0.00 0.00 83 1015.3
20260509110333 81 266 6.0 12.0 0.00 0.00 0.00 83 1015.2
20260509105335 81 309 5.0 11.0 0.00 0.00 0.00 83 1015.1
20260509104331 81 263 6.0 10.0 0.00 0.00 0.00 82 1015.1
20260509103331 81 270 6.0 10.0 0.00 0.00 0.00 82 1015.1
20260509102347 81 275 4.0 11.0 0.00 0.00 0.00 83 1015.1
20260509101321 81 274 4.0 10.0 0.00 0.00 0.00 83 1015.1
20260509100331 81 244 6.0 11.0 0.00 0.00 0.00 83 1015.0
20260509095353 81 272 5.0 9.0 0.00 0.00 0.00 83 1015.1
20260509094348 81 274 4.0 8.0 0.00 0.00 0.00 83 1015.1
20260509093322 81 288 4.0 11.0 0.00 0.00 0.00 84 1015.0
20260509092322 81 286 2.0 8.0 0.00 0.00 0.00 83 1015.1
20260509091317 81 257 5.0 9.0 0.00 0.00 0.00 82 1015.0
20260509090404 81 275 3.0 10.0 0.00 0.00 0.00 82 1015.0
20260509085325 81 281 7.0 10.0 0.00 0.00 0.00 81 1015.0
20260509084344 81 257 4.0 10.0 0.00 0.00 0.00 83 1015.0
20260509083319 81 220 5.0 10.0 0.00 0.00 0.00 84 1015.1
20260509082356 81 264 4.0 11.0 0.00 0.00 0.00 84 1015.1
20260509081331 81 266 3.0 10.0 0.00 0.00 0.00 85 1015.1
20260509080401 81 257 5.0 10.0 0.00 0.00 0.00 85 1015.2